GW5277 Weather Reports


time (UTC)temp
C
wind
direction
speed
KPH
gust
KPH
rain 1hr
cm
rain 24hr
cm
rain mn
cm
humidity
%
barometer
mb
20260505051707 14 217 0.0 0.0 0.00 0.00 0.00 75 1011.4
20260505051205 15 223 0.0 0.0 0.00 0.00 0.00 72 1011.6
20260505050657 15 161 1.6 3.2 0.00 0.00 0.00 68 1011.8
20260505050156 13 189 1.6 3.2 0.00 0.00 0.00 73 1011.5
20260505041630 10 237 0.0 0.0 0.00 0.00 0.00 89 1011.4
20260505041128 10 237 0.0 0.0 0.00 0.00 0.00 89 1011.4
20260505040624 10 237 0.0 0.0 0.00 0.00 0.00 89 1011.4
20260505040122 11 237 0.0 0.0 0.00 0.00 0.00 89 1011.5
20260505035618 11 237 0.0 0.0 0.00 0.00 0.00 88 1011.5
20260505035114 11 237 0.0 0.0 0.00 0.00 0.00 89 1011.3
20260505034611 11 237 0.0 0.0 0.00 0.00 0.00 89 1011.4
20260505034108 11 237 0.0 0.0 0.00 0.00 0.00 89 1011.4
20260505033604 11 237 0.0 0.0 0.00 0.00 0.00 89 1011.6
20260505033058 11 237 0.0 0.0 0.00 0.00 0.00 88 1011.6
20260505032555 11 236 0.0 0.0 0.00 0.00 0.00 88 1011.5
20260505032051 11 236 0.0 0.0 0.00 0.00 0.00 88 1011.5
20260505031549 11 223 0.0 0.0 0.00 0.00 0.00 88 1011.4
20260505031045 11 219 0.0 0.0 0.00 0.00 0.00 88 1011.5
20260505030542 11 213 0.0 0.0 0.00 0.00 0.00 88 1011.5
20260505030038 11 211 0.0 0.0 0.00 0.00 0.00 88 1011.5
20260505025534 11 216 0.0 0.0 0.00 0.00 0.00 87 1011.6
20260505025033 11 198 0.0 0.0 0.00 0.00 0.00 86 1011.8
20260505024530 11 184 0.0 0.0 0.00 0.00 0.00 86 1011.5
20260505024027 11 184 0.0 0.0 0.00 0.00 0.00 85 1011.6
20260505023524 11 185 0.0 0.0 0.00 0.00 0.00 84 1011.6
20260505023022 11 185 0.0 0.0 0.00 0.00 0.00 83 1011.5
20260505022519 12 185 0.0 0.0 0.00 0.00 0.00 83 1011.7
20260505022016 12 178 0.0 0.0 0.00 0.00 0.00 79 1011.7
20260505021513 -17 0.0 0.0 0.00 0.00 0.00 1011.6
20260505021009 -17 0.0 0.0 0.00 0.00 0.00 1011.6
20260505020508 14 178 0.0 0.0 0.00 0.00 0.00 72 1011.6
20260505020006 14 178 0.0 0.0 0.00 0.00 0.00 72 1011.8
20260505015503 15 139 0.0 0.0 0.00 0.00 0.00 69 1011.7
20260505015000 15 139 0.0 0.0 0.00 0.00 0.00 69 1011.7
20260505014457 16 135 0.0 0.0 0.00 0.00 0.00 68 1011.7
20260505013954 16 136 0.0 0.0 0.00 0.00 0.00 65 1011.7
20260505013451 17 142 0.0 0.0 0.00 0.00 0.00 60 1011.7
20260505012948 17 131 0.0 0.0 0.00 0.00 0.00 59 1011.6
20260505012446 18 177 1.6 1.6 0.00 0.00 0.00 59 1011.7
20260505011943 18 146 1.6 3.2 0.00 0.00 0.00 58 1011.7
20260505011439 18 172 1.6 4.8 0.00 0.00 0.00 58 1011.7
20260505010936 18 101 3.2 4.8 0.00 0.00 0.00 58 1011.7
20260505010432 18 174 3.2 6.4 0.00 0.00 0.00 58 1011.7
20260505005928 18 177 4.8 6.4 0.00 0.00 0.00 58 1011.5
20260505005425 18 152 4.8 6.4 0.00 0.00 0.00 57 1011.6
20260505004922 18 143 4.8 4.8 0.00 0.00 0.00 57 1011.5
20260505004418 18 153 6.4 9.7 0.00 0.00 0.00 56 1011.5
20260505003915 19 153 1.6 9.7 0.00 0.00 0.00 55 1011.3
20260505003413 19 144 1.6 1.6 0.00 0.00 0.00 56 1011.4
20260505002909 19 172 3.2 3.2 0.00 0.00 0.00 55 1011.4
20260505002405 19 146 6.4 11.3 0.00 0.00 0.00 55 1011.2
20260505001904 19 178 1.6 9.7 0.00 0.00 0.00 56 1010.9
20260505001401 19 158 4.8 6.4 0.00 0.00 0.00 55 1011.0
20260505000858 19 142 3.2 4.8 0.00 0.00 0.00 57 1011.0
20260505000358 18 176 3.2 14.5 0.00 0.00 0.00 58 1011.2
20260504235852 19 143 3.2 4.8 0.00 0.00 0.00 57 1011.3
20260504235349 -17 0.0 0.0 0.00 0.00 0.00 1011.4
20260504234845 -17 0.0 0.0 0.00 0.00 0.00 1011.3
20260504234343 20 145 1.6 1.6 0.00 0.00 0.00 55 1011.3
20260504233840 20 145 1.6 1.6 0.00 0.00 0.00 55 1011.3
20260504233335 20 178 4.8 6.4 0.00 0.00 0.00 54 1011.2
20260504232833 20 173 4.8 6.4 0.00 0.00 0.00 53 1011.0
20260504232329 20 167 3.2 3.2 0.00 0.00 0.00 53 1011.0
20260504231826 20 151 6.4 12.9 0.00 0.00 0.00 53 1011.0
20260504231323 20 247 3.2 12.9 0.00 0.00 0.00 54 1011.0
20260504230819 21 148 0.0 4.8 0.00 0.00 0.00 53 1011.2
20260504230317 21 137 0.0 6.4 0.00 0.00 0.00 53 1011.0
20260504225816 21 164 4.8 9.7 0.00 0.00 0.00 52 1011.0
20260504225311 21 154 6.4 11.3 0.00 0.00 0.00 51 1011.0
20260504224809 20 157 4.8 9.7 0.00 0.00 0.00 52 1011.2
20260504224306 20 138 1.6 6.4 0.00 0.00 0.00 55 1011.3
20260504223802 21 135 4.8 9.7 0.00 0.00 0.00 50 1011.3
20260504223258 21 194 8.0 16.1 0.00 0.00 0.00 52 1011.3
20260504222755 20 133 3.2 3.2 0.00 0.00 0.00 53 1011.7
20260504222252 20 213 12.9 16.1 0.00 0.00 0.00 53 1011.5
20260504221750 20 180 9.7 14.5 0.00 0.00 0.00 53 1011.5
20260504221247 21 234 1.6 3.2 0.00 0.00 0.00 52 1011.4
20260504220743 21 184 9.7 14.5 0.00 0.00 0.00 53 1011.4
20260504220240 21 174 4.8 11.3 0.00 0.00 0.00 53 1011.2
20260504215737 21 87 9.7 25.7 0.00 0.00 0.00 50 1010.8
20260504215234 21 183 4.8 9.7 0.00 0.00 0.00 50 1010.9
20260504214730 21 147 8.0 12.9 0.00 0.00 0.00 51 1010.9
20260504214226 21 186 6.4 12.9 0.00 0.00 0.00 51 1010.9
20260504213723 22 92 6.4 14.5 0.00 0.00 0.00 50 1010.6
20260504213220 21 39 9.7 16.1 0.00 0.00 0.00 50 1010.7
20260504212717 21 122 6.4 9.7 0.00 0.00 0.00 51 1010.9
20260504212214 21 72 6.4 16.1 0.00 0.00 0.00 49 1010.9
20260504211711 21 217 4.8 4.8 0.00 0.00 0.00 50 1010.9
20260504211207 21 232 12.9 16.1 0.00 0.00 0.00 51 1010.9
20260504210704 21 158 6.4 6.4 0.00 0.00 0.00 51 1010.8
20260504210201 21 79 6.4 11.3 0.00 0.00 0.00 52 1011.2
20260504205658 21 140 9.7 14.5 0.00 0.00 0.00 50 1010.6
20260504205155 22 145 4.8 17.7 0.00 0.00 0.00 50 1010.9
20260504204654 22 254 11.3 20.9 0.00 0.00 0.00 48 1010.8
20260504204152 22 147 6.4 14.5 0.00 0.00 0.00 48 1010.8
20260504203651 22 151 4.8 6.4 0.00 0.00 0.00 49 1010.7
20260504203149 21 87 4.8 11.3 0.00 0.00 0.00 50 1010.8
20260504202648 20 159 6.4 14.5 0.00 0.00 0.00 49 1010.9
20260504202146 20 156 8.0 11.3 0.00 0.00 0.00 50 1011.0
20260504201643 21 189 6.4 12.9 0.00 0.00 0.00 51 1011.0
20260504201140 21 87 3.2 17.7 0.00 0.00 0.00 50 1010.9
20260504200637 21 85 9.7 14.5 0.00 0.00 0.00 48 1011.2
20260504200134 21 124 3.2 12.9 0.00 0.00 0.00 49 1011.2
20260504195630 22 149 8.0 16.1 0.00 0.00 0.00 52 1011.0
20260504195126 21 265 3.2 11.3 0.00 0.00 0.00 53 1011.2
20260504194623 21 166 6.4 20.9 0.00 0.00 0.00 52 1011.0
20260504194119 21 184 8.0 12.9 0.00 0.00 0.00 49 1011.3
20260504193615 21 189 14.5 22.5 0.00 0.00 0.00 49 1011.3
20260504193114 21 179 9.7 16.1 0.00 0.00 0.00 51 1011.2
20260504192612 21 192 6.4 9.7 0.00 0.00 0.00 52 1011.3
20260504192109 21 175 8.0 20.9 0.00 0.00 0.00 52 1011.4
20260504191608 21 189 17.7 20.9 0.00 0.00 0.00 52 1011.5
20260504191103 21 241 4.8 9.7 0.00 0.00 0.00 51 1011.6
20260504190600 21 159 6.4 17.7 0.00 0.00 0.00 54 1011.6
20260504190056 21 124 6.4 16.1 0.00 0.00 0.00 52 1011.6
20260504185553 21 192 6.4 11.3 0.00 0.00 0.00 51 1011.7
20260504185050 21 181 11.3 22.5 0.00 0.00 0.00 53 1011.9
20260504184545 21 235 8.0 9.7 0.00 0.00 0.00 52 1011.7
20260504184040 21 168 8.0 14.5 0.00 0.00 0.00 52 1011.9
20260504183538 20 128 9.7 14.5 0.00 0.00 0.00 52 1012.0
20260504183036 21 128 12.9 16.1 0.00 0.00 0.00 54 1012.1
20260504182532 21 343 3.2 6.4 0.00 0.00 0.00 55 1012.2
20260504182030 20 207 9.7 14.5 0.00 0.00 0.00 55 1012.3
20260504181527 20 76 12.9 22.5 0.00 0.00 0.00 54 1012.1
20260504181025 20 65 11.3 17.7 0.00 0.00 0.00 52 1012.1
20260504180524 20 152 8.0 22.5 0.00 0.00 0.00 55 1012.4
20260504180022 20 227 6.4 16.1 0.00 0.00 0.00 53 1012.3
20260504175519 20 164 8.0 24.1 0.00 0.00 0.00 56 1012.2
20260504175016 20 184 16.1 24.1 0.00 0.00 0.00 55 1012.3
20260504174514 20 146 16.1 20.9 0.00 0.00 0.00 53 1012.2
20260504174011 20 129 8.0 24.1 0.00 0.00 0.00 54 1012.3
20260504173507 20 136 3.2 9.7 0.00 0.00 0.00 54 1012.3
20260504173005 20 141 8.0 12.9 0.00 0.00 0.00 56 1012.5
20260504172501 20 132 14.5 25.7 0.00 0.00 0.00 55 1012.7
20260504171957 20 138 11.3 17.7 0.00 0.00 0.00 54 1012.7
20260504171454 20 169 12.9 24.1 0.00 0.00 0.00 53 1012.6
20260504170951 20 157 9.7 25.7 0.00 0.00 0.00 52 1012.8
20260504170447 20 199 11.3 22.5 0.00 0.00 0.00 54 1012.8
20260504160407 19 129 14.5 20.9 0.00 0.00 0.00 54 1013.7
20260504150831 18 144 14.5 20.9 0.00 0.00 0.00 50 1014.4
20260504150328 18 178 4.8 6.4 0.00 0.00 0.00 52 1014.4
20260504141258 16 138 8.0 20.9 0.00 0.00 0.00 55 1014.7
20260504140754 16 141 6.4 12.9 0.00 0.00 0.00 54 1014.6
20260504140250 16 93 9.7 14.5 0.00 0.00 0.00 53 1014.7
20260504130719 13 131 6.4 11.3 0.00 0.00 0.00 59 1014.7
20260504130214 13 106 8.0 11.3 0.00 0.00 0.00 61 1014.7
20260504120139 11 129 1.6 11.3 0.00 0.00 0.00 70 1014.9
20260504110606 8 95 0.0 1.6 0.00 0.00 0.00 72 1015.2
20260504100533 8 230 0.0 0.0 0.00 0.00 0.00 68 1015.3
20260504081926 -17 0.0 0.0 0.00 0.00 0.00 1016.0
20260504081424 -17 0.0 0.0 0.00 0.00 0.00 1016.1
20260504080919 -17 0.0 0.0 0.00 0.00 0.00 1016.2
20260504080417 -17 0.0 0.0 0.00 0.00 0.00 1015.9
20260504070344 -17 0.0 0.0 0.00 0.00 0.00 1016.3